Tracking 35334 objects as of 12-Sep-2026
HD Live streaming from Space Station
objects crossing your sky now

STARLINK-4008

Track STARLINK-4008 now!
10-day predictions
STARLINK-4008 is classified as:


NORAD ID: 52622
Int'l Code: 2022-052AA
Launch date: May 14, 2022
Source: United States (US)
Launch site: AIR FORCE EASTERN TEST RANGE (AFETR)
Your satellite tracking list
Your tracking list is empty




NASA's NSSDC Master Catalog

Two Line Element Set (TLE):
1 52622U 22052AA  26255.12430980  .00000600  00000-0  28112-4 0  9999
2 52622  53.1589 155.5988 0001269  90.7676 269.3473 15.35399002239087
Source of the keplerian elements: AFSPC